WAT5714 KDCA-KBTV

Flight info

Callsign WAT5714
Flight time 1h 5m
Altitude 35000
Route SOOKI6 SWANN BROSS Q419 RBV Q22 LLUND BIZEX CAM GRNMT BTV
Aircraft B738/M-SDE2E3FGHIRWXY/LB1

Departure

Time 2026-04-26 11:30
Airport Ronald Reagan Washington National Airport (KDCA)

Arrival

Time 2026-04-26 12:35
Airport Patrick Leahy Burlington International Airport (KBTV)
Time Latitude Longitude Altitude Speed Heading
2026-04-26 11:06 38.85478 -77.04140 25 ft 0 kts 176°
2026-04-26 11:22 38.85487 -77.04141 25 ft 2 kts 161°
2026-04-26 11:22 38.85501 -77.04152 25 ft 2 kts 133°
2026-04-26 11:22 38.85509 -77.04170 26 ft 2 kts 107°
2026-04-26 11:23 38.85511 -77.04191 26 ft 2 kts 79°
2026-04-26 11:23 38.85506 -77.04211 26 ft 2 kts 72°
2026-04-26 11:23 38.85504 -77.04218 26 ft 0 kts 75°
2026-04-26 11:25 38.85505 -77.04214 26 ft 3 kts 75°
2026-04-26 11:25 38.85521 -77.04140 25 ft 9 kts 70°
2026-04-26 11:25 38.85545 -77.04053 23 ft 10 kts 71°
2026-04-26 11:26 38.85541 -77.03961 21 ft 9 kts 144°
2026-04-26 11:26 38.85468 -77.03947 21 ft 14 kts 175°
2026-04-26 11:26 38.85336 -77.03933 21 ft 18 kts 176°
2026-04-26 11:26 38.85209 -77.03921 21 ft 16 kts 175°
2026-04-26 11:27 38.85091 -77.03909 21 ft 18 kts 175°
2026-04-26 11:27 38.84954 -77.03896 20 ft 17 kts 176°
2026-04-26 11:27 38.84831 -77.03883 20 ft 17 kts 175°
2026-04-26 11:27 38.84693 -77.03870 20 ft 19 kts 176°
2026-04-26 11:28 38.84555 -77.03857 17 ft 18 kts 176°
2026-04-26 11:28 38.84427 -77.03842 16 ft 16 kts 174°
2026-04-26 11:28 38.84312 -77.03827 16 ft 15 kts 175°
2026-04-26 11:28 38.84212 -77.03809 15 ft 11 kts 142°
2026-04-26 11:29 38.84182 -77.03697 13 ft 12 kts 77°
2026-04-26 11:29 38.84215 -77.03674 14 ft 0 kts 352°
2026-04-26 11:29 38.84240 -77.03678 14 ft 25 kts 353°
2026-04-26 11:29 38.84778 -77.03737 18 ft 118 kts 355°
2026-04-26 11:30 38.85866 -77.03834 361 ft 165 kts 358°
2026-04-26 11:30 38.86668 -77.03884 948 ft 174 kts 358°
2026-04-26 11:30 38.88348 -77.04567 1754 ft 209 kts 328°
2026-04-26 11:30 38.89405 -77.06127 2298 ft 236 kts 310°
2026-04-26 11:31 38.90435 -77.07787 3437 ft 232 kts 309°
2026-04-26 11:31 38.91224 -77.09748 4362 ft 243 kts 297°
2026-04-26 11:31 38.92151 -77.11597 5507 ft 237 kts 322°
2026-04-26 11:31 38.93598 -77.12666 6581 ft 234 kts 334°
2026-04-26 11:32 38.95103 -77.13753 7484 ft 241 kts 330°
2026-04-26 11:32 38.96715 -77.14744 8182 ft 255 kts 344°
2026-04-26 11:32 38.98600 -77.14706 8838 ft 270 kts 17°
2026-04-26 11:32 39.00372 -77.13737 9802 ft 272 kts 27°
2026-04-26 11:33 39.01982 -77.12233 10666 ft 280 kts 37°
2026-04-26 11:33 39.03437 -77.10448 11788 ft 280 kts 47°
2026-04-26 11:33 39.04417 -77.08044 12499 ft 301 kts 69°
2026-04-26 11:33 39.04826 -77.05140 12838 ft 328 kts 78°
2026-04-26 11:34 39.05198 -77.01975 13141 ft 351 kts 76°
2026-04-26 11:34 39.05631 -76.98703 13862 ft 359 kts 76°
2026-04-26 11:34 39.06068 -76.95352 14507 ft 369 kts 77°
2026-04-26 11:34 39.06501 -76.91927 15317 ft 373 kts 78°
2026-04-26 11:35 39.06943 -76.88417 16050 ft 378 kts 78°
2026-04-26 11:35 39.07405 -76.84796 16775 ft 384 kts 78°
2026-04-26 11:35 39.07868 -76.81159 17459 ft 389 kts 78°
2026-04-26 11:35 39.08179 -76.78693 17927 ft 392 kts 78°
2026-04-26 11:36 39.08797 -76.73779 18770 ft 400 kts 78°
2026-04-26 11:36 39.09311 -76.70026 19384 ft 405 kts 77°
2026-04-26 11:36 39.09867 -76.66199 19995 ft 410 kts 77°
2026-04-26 11:36 39.10412 -76.62385 20553 ft 416 kts 78°
2026-04-26 11:37 39.10966 -76.58430 21136 ft 421 kts 78°
2026-04-26 11:37 39.11517 -76.54495 21687 ft 425 kts 78°
2026-04-26 11:37 39.12072 -76.50461 22213 ft 431 kts 79°
2026-04-26 11:37 39.12542 -76.46425 22724 ft 436 kts 81°
2026-04-26 11:38 39.12983 -76.42328 23226 ft 440 kts 81°
2026-04-26 11:38 39.13443 -76.38160 23697 ft 445 kts 80°
2026-04-26 11:38 39.13918 -76.33968 24170 ft 450 kts 81°
2026-04-26 11:38 39.14404 -76.29677 24619 ft 454 kts 81°
2026-04-26 11:39 39.14884 -76.25378 25086 ft 457 kts 81°
2026-04-26 11:39 39.15364 -76.21036 25528 ft 461 kts 81°
2026-04-26 11:39 39.15862 -76.16660 25913 ft 466 kts 81°
2026-04-26 11:39 39.16372 -76.12277 26322 ft 470 kts 81°
2026-04-26 11:40 39.16882 -76.07864 26713 ft 473 kts 81°
2026-04-26 11:40 39.17386 -76.03436 27086 ft 477 kts 82°
2026-04-26 11:40 39.17897 -75.98919 27452 ft 481 kts 82°
2026-04-26 11:40 39.18599 -75.94430 27783 ft 485 kts 74°
2026-04-26 11:41 39.19823 -75.90147 28078 ft 489 kts 63°
2026-04-26 11:42 39.37912 -75.67541 30226 ft 503 kts 37°
2026-04-26 11:43 39.40670 -75.64502 30773 ft 499 kts 37°
2026-04-26 11:43 39.43412 -75.61486 31181 ft 499 kts 37°
2026-04-26 11:43 39.46204 -75.58411 31581 ft 498 kts 37°
2026-04-26 11:43 39.48950 -75.55382 31962 ft 499 kts 37°
2026-04-26 11:44 39.51699 -75.52345 32326 ft 499 kts 37°
2026-04-26 11:44 39.54468 -75.49285 32688 ft 499 kts 37°
2026-04-26 11:44 39.57237 -75.46223 33061 ft 499 kts 36°
2026-04-26 11:44 39.59983 -75.43183 33417 ft 499 kts 36°
2026-04-26 11:45 39.62718 -75.40153 33774 ft 499 kts 36°
2026-04-26 11:45 39.65498 -75.37071 34116 ft 499 kts 36°
2026-04-26 11:45 39.68250 -75.34014 34478 ft 499 kts 37°
2026-04-26 11:45 39.70978 -75.30978 34807 ft 498 kts 37°
2026-04-26 11:46 39.73764 -75.27876 35102 ft 498 kts 37°
2026-04-26 11:46 39.76556 -75.24766 35116 ft 499 kts 37°
2026-04-26 11:46 39.81703 -75.18003 35120 ft 502 kts 46°
2026-04-26 11:47 39.86509 -75.10815 35118 ft 502 kts 45°
2026-04-26 11:47 39.91406 -75.03612 35113 ft 503 kts 45°
2026-04-26 11:48 39.96224 -74.96372 35107 ft 506 kts 49°
2026-04-26 11:48 40.00462 -74.88433 35103 ft 510 kts 54°
2026-04-26 11:49 40.04556 -74.80366 35100 ft 505 kts 53°
2026-04-26 11:49 40.08675 -74.72348 35101 ft 507 kts 54°
2026-04-26 11:50 40.12764 -74.64284 35101 ft 509 kts 54°
2026-04-26 11:50 40.16888 -74.56169 35100 ft 510 kts 52°
2026-04-26 11:51 40.21680 -74.48670 35108 ft 506 kts 40°
2026-04-26 11:51 40.27271 -74.42323 35118 ft 502 kts 34°
2026-04-26 11:52 40.32917 -74.36154 35128 ft 503 kts 35°
2026-04-26 11:52 40.38624 -74.29933 35128 ft 503 kts 35°
2026-04-26 11:53 40.44340 -74.23755 35128 ft 502 kts 35°
2026-04-26 11:54 40.52846 -74.14563 35128 ft 502 kts 35°
2026-04-26 11:54 40.58508 -74.08439 35128 ft 501 kts 35°
2026-04-26 11:55 40.64155 -74.02322 35128 ft 500 kts 35°
2026-04-26 11:55 40.69784 -73.96204 35129 ft 501 kts 35°
2026-04-26 11:56 40.75397 -73.90094 35131 ft 501 kts 35°
2026-04-26 11:56 40.81057 -73.83931 35127 ft 499 kts 35°
2026-04-26 11:57 40.86975 -73.78434 35127 ft 489 kts 23°
2026-04-26 11:57 40.93518 -73.74874 35128 ft 480 kts 13°
2026-04-26 11:58 41.00097 -73.71744 35128 ft 479 kts 14°
2026-04-26 11:58 41.06590 -73.68581 35127 ft 478 kts 13°
2026-04-26 11:59 41.13063 -73.65488 35128 ft 479 kts 14°
2026-04-26 11:59 41.19637 -73.62300 35127 ft 478 kts 14°
2026-04-26 12:00 41.26202 -73.59255 35127 ft 473 kts 10°
2026-04-26 12:00 41.32903 -73.57609 35136 ft 462 kts 359°
2026-04-26 12:01 41.39581 -73.56703 35146 ft 462 kts 360°
2026-04-26 12:01 41.46229 -73.55720 35165 ft 462 kts 359°
2026-04-26 12:02 41.52913 -73.54787 35164 ft 460 kts 359°
2026-04-26 12:02 41.59617 -73.53861 35165 ft 460 kts 359°
2026-04-26 12:03 41.66324 -73.52934 35164 ft 459 kts 359°
2026-04-26 12:03 41.73043 -73.52017 35164 ft 459 kts 359°
2026-04-26 12:04 41.79749 -73.51097 35162 ft 459 kts 359°
2026-04-26 12:04 41.86456 -73.50176 35156 ft 458 kts 359°
2026-04-26 12:05 41.93151 -73.49256 35150 ft 459 kts 359°
2026-04-26 12:05 41.99874 -73.48331 35149 ft 459 kts 359°
2026-04-26 12:06 42.06601 -73.47402 35148 ft 457 kts
2026-04-26 12:06 42.13278 -73.46480 35147 ft 457 kts
2026-04-26 12:07 42.19773 -73.45582 35146 ft 458 kts
2026-04-26 12:07 42.26352 -73.44669 35146 ft 458 kts
2026-04-26 12:08 42.32963 -73.43751 35146 ft 458 kts
2026-04-26 12:08 42.39525 -73.42837 35146 ft 458 kts
2026-04-26 12:09 42.46176 -73.41909 35147 ft 458 kts
2026-04-26 12:09 42.52798 -73.40983 35149 ft 459 kts
2026-04-26 12:10 42.59455 -73.40050 35157 ft 458 kts
2026-04-26 12:10 42.66170 -73.39105 35170 ft 458 kts
2026-04-26 12:11 42.72883 -73.38160 35182 ft 458 kts
2026-04-26 12:11 42.79620 -73.37209 35182 ft 458 kts
2026-04-26 12:12 42.86407 -73.36251 35183 ft 458 kts
2026-04-26 12:12 42.93166 -73.35291 35182 ft 457 kts
2026-04-26 12:13 42.99841 -73.34087 35182 ft 461 kts
2026-04-26 12:13 43.06467 -73.31704 35183 ft 463 kts 11°
2026-04-26 12:14 43.13110 -73.29313 35184 ft 463 kts 10°
2026-04-26 12:14 43.19727 -73.26913 35185 ft 462 kts 11°
2026-04-26 12:14 43.23025 -73.25700 34977 ft 461 kts 11°
2026-04-26 12:15 43.26317 -73.24485 34153 ft 460 kts 11°
2026-04-26 12:15 43.29570 -73.23281 33286 ft 460 kts 11°
2026-04-26 12:15 43.32848 -73.22072 32399 ft 460 kts 11°
2026-04-26 12:15 43.36121 -73.20868 31472 ft 460 kts 11°
2026-04-26 12:16 43.39401 -73.19655 30651 ft 457 kts 11°
2026-04-26 12:16 43.42630 -73.18452 29983 ft 454 kts 11°
2026-04-26 12:16 43.45904 -73.17236 29273 ft 454 kts 11°
2026-04-26 12:16 43.49123 -73.16044 28559 ft 448 kts 11°
2026-04-26 12:17 43.52291 -73.14872 27858 ft 442 kts 12°
2026-04-26 12:17 43.55447 -73.13698 27157 ft 436 kts 12°
2026-04-26 12:17 43.58525 -73.12547 26468 ft 430 kts 12°
2026-04-26 12:17 43.61606 -73.11390 25774 ft 424 kts 12°
2026-04-26 12:18 43.64561 -73.10274 25105 ft 418 kts 12°
2026-04-26 12:18 43.67422 -73.09193 24455 ft 412 kts 12°
2026-04-26 12:18 43.70289 -73.08113 23799 ft 406 kts 12°
2026-04-26 12:18 43.73141 -73.07042 23149 ft 400 kts 12°
2026-04-26 12:19 43.75948 -73.05990 22498 ft 394 kts 13°
2026-04-26 12:19 43.78706 -73.04955 21858 ft 389 kts 13°
2026-04-26 12:19 43.81380 -73.03949 21237 ft 383 kts 13°
2026-04-26 12:19 43.84022 -73.02953 20614 ft 378 kts 13°
2026-04-26 12:20 43.86644 -73.01963 20000 ft 372 kts 13°
2026-04-26 12:20 43.89224 -73.00990 19390 ft 366 kts 13°
2026-04-26 12:20 43.91785 -73.00022 18785 ft 361 kts 13°
2026-04-26 12:20 43.94331 -72.99059 18191 ft 355 kts 13°
2026-04-26 12:21 43.96844 -72.98365 17499 ft 351 kts
2026-04-26 12:21 43.99421 -72.98464 16806 ft 346 kts 350°
2026-04-26 12:21 44.01803 -72.99552 16111 ft 343 kts 329°
2026-04-26 12:21 44.03839 -73.01611 15492 ft 339 kts 322°
2026-04-26 12:22 44.05811 -73.03692 14771 ft 338 kts 324°
2026-04-26 12:22 44.07806 -73.05692 14102 ft 335 kts 324°
2026-04-26 12:22 44.09826 -73.07730 13440 ft 332 kts 324°
2026-04-26 12:22 44.11781 -73.09712 12794 ft 330 kts 324°
2026-04-26 12:23 44.13707 -73.11659 12148 ft 327 kts 325°
2026-04-26 12:23 44.15598 -73.13572 11457 ft 327 kts 325°
2026-04-26 12:23 44.17474 -73.15471 10915 ft 322 kts 325°
2026-04-26 12:23 44.19349 -73.17371 10577 ft 310 kts 325°
2026-04-26 12:24 44.21144 -73.19192 10413 ft 294 kts 325°
2026-04-26 12:24 44.22828 -73.20901 10282 ft 280 kts 325°
2026-04-26 12:24 44.24366 -73.22463 10089 ft 270 kts 325°
2026-04-26 12:25 44.27410 -73.25555 9428 ft 263 kts 326°
2026-04-26 12:25 44.28895 -73.27066 9095 ft 262 kts 326°
2026-04-26 12:25 44.30396 -73.28592 8760 ft 266 kts 326°
2026-04-26 12:25 44.31895 -73.30120 8419 ft 263 kts 326°
2026-04-26 12:26 44.33395 -73.31649 8082 ft 260 kts 326°
2026-04-26 12:26 44.34860 -73.33142 7752 ft 258 kts 326°
2026-04-26 12:26 44.36331 -73.34644 7422 ft 258 kts 326°
2026-04-26 12:26 44.37815 -73.36157 7084 ft 260 kts 326°
2026-04-26 12:27 44.39297 -73.37672 6747 ft 257 kts 326°
2026-04-26 12:27 44.40752 -73.39161 6417 ft 254 kts 326°
2026-04-26 12:27 44.42195 -73.40637 6090 ft 251 kts 326°
2026-04-26 12:27 44.43636 -73.42113 5763 ft 249 kts 326°
2026-04-26 12:28 44.45033 -73.43544 5538 ft 246 kts 325°
2026-04-26 12:28 44.46411 -73.44958 5472 ft 231 kts 326°
2026-04-26 12:28 44.47695 -73.46275 5379 ft 220 kts 326°
2026-04-26 12:28 44.48959 -73.47546 5294 ft 221 kts 330°
2026-04-26 12:29 44.50408 -73.48180 5177 ft 218 kts
2026-04-26 12:29 44.51870 -73.47574 4984 ft 214 kts 31°
2026-04-26 12:29 44.54218 -73.44855 4483 ft 213 kts 40°
2026-04-26 12:30 44.55365 -73.43488 4257 ft 213 kts 41°
2026-04-26 12:30 44.56522 -73.42102 4028 ft 213 kts 41°
2026-04-26 12:30 44.57661 -73.40736 3800 ft 212 kts 41°
2026-04-26 12:31 44.59563 -73.37563 3335 ft 212 kts 76°
2026-04-26 12:31 44.59468 -73.35545 3295 ft 204 kts 112°
2026-04-26 12:31 44.58661 -73.33958 3307 ft 188 kts 130°
2026-04-26 12:31 44.57844 -73.32472 3228 ft 185 kts 128°
2026-04-26 12:32 44.56993 -73.31072 3114 ft 185 kts 130°
2026-04-26 12:32 44.56137 -73.29672 2777 ft 183 kts 130°
2026-04-26 12:32 44.54609 -73.27193 2234 ft 147 kts 130°
2026-04-26 12:33 44.53926 -73.26081 2200 ft 144 kts 130°
2026-04-26 12:33 44.53259 -73.24999 2167 ft 141 kts 130°
2026-04-26 12:33 44.52601 -73.23931 1787 ft 142 kts 130°
2026-04-26 12:33 44.51928 -73.22839 1454 ft 141 kts 131°
2026-04-26 12:34 44.51237 -73.21720 1306 ft 144 kts 130°
2026-04-26 12:34 44.50552 -73.20611 1092 ft 147 kts 131°
2026-04-26 12:34 44.49876 -73.19503 909 ft 144 kts 130°
2026-04-26 12:34 44.49212 -73.18417 696 ft 144 kts 131°
2026-04-26 12:35 44.48546 -73.17350 488 ft 142 kts 130°
2026-04-26 12:35 44.47889 -73.16289 312 ft 132 kts 131°
2026-04-26 12:35 44.47397 -73.15498 326 ft 76 kts 131°
2026-04-26 12:35 44.47151 -73.15107 334 ft 32 kts 131°
2026-04-26 12:36 44.47027 -73.15042 334 ft 14 kts 219°
2026-04-26 12:36 44.46953 -73.15129 334 ft 12 kts 220°
2026-04-26 12:36 44.46907 -73.15219 334 ft 10 kts 256°
2026-04-26 12:36 44.46892 -73.15301 336 ft 5 kts 231°
2026-04-26 12:37 44.46863 -73.15309 336 ft 5 kts 179°
2026-04-26 12:37 44.46787 -73.15299 337 ft 13 kts 174°
2026-04-26 12:37 44.46726 -73.15314 337 ft 5 kts 237°
2026-04-26 12:37 44.46723 -73.15355 337 ft 3 kts 307°
2026-04-26 12:38 44.46761 -73.15368 337 ft 4 kts 358°
2026-04-26 12:38 44.46772 -73.15369 337 ft 0 kts 358°